sat.trackr.live / text

‹ back to catalog

ONEWEB-0277

NORAD 48995 · 2021-060AE

PAYLOAD ACTIVE UNKNOWN

§ Identity

Operator
Country
UK
Launch date
2021-07-01
Launch site
VOSTO
Launch vehicle
Mass (kg)
RCS (m²)

Purposes: comms

External: N2YO · Heavens-Above · Gunter

§ Orbital elements

Epoch: 2026-09-20T04:41:34.745856Z

Period
109.37 min
Inclination
87.9153°
Eccentricity
0.0002003
Mean motion
13.16595572 rev/d
Perigee alt
1,196.2 km
Apogee alt
1,199.3 km
Semi-major
7,575.9 km
B*
-8.6511e-5
RAAN
209.9168°
Arg perigee
72.1406°
Mean anomaly
287.9943°
Rev number
25,206

§ Raw data

ONEWEB-02771 48995U 21060AE  26263.19554104 -.00000020  00000+0 -86511-4 0  99902 48995  87.9153 209.9168 0002003  72.1406 287.9943 13.16595572252061

JSON: /api/v1/satellites/48995 · /tle

For live sub-satellite position, see the globe view (requires WebGL).

§ Visibility from observer

Set your observer location to see the next 7 days of passes ≥ 10°. The values pass through the URL so the page stays shareable.

No JS? Fill the form by hand. The geolocation button needs JavaScript.